TimeEST,TemperatureF,Dew PointF,Humidity,Sea Level PressureIn,VisibilityMPH,Wind Direction,Wind SpeedMPH,Gust SpeedMPH,PrecipitationIn,Events,Conditions,WindDirDegrees,DateUTC
12:53 AM,32.0,30.0,92,30.07,4.0,West,3.5,-,N/A,,Overcast,280,2013-01-01 05:53:00
1:53 AM,32.0,30.0,92,30.06,4.0,Calm,Calm,-,N/A,,Overcast,0,2013-01-01 06:53:00
2:53 AM,32.0,30.9,96,30.07,6.0,NW,3.5,-,N/A,,Overcast,310,2013-01-01 07:53:00
3:19 AM,32.0,30.2,93,30.04,2.5,Calm,Calm,-,N/A,,Overcast,0,2013-01-01 08:19:00
3:42 AM,32.0,30.2,93,30.04,3.0,Calm,Calm,-,0.00,,Overcast,0,2013-01-01 08:42:00
3:53 AM,32.0,30.0,92,30.07,4.0,Calm,Calm,-,0.00,,Overcast,0,2013-01-01 08:53:00
4:53 AM,32.0,30.0,92,30.07,5.0,Calm,Calm,-,N/A,,Overcast,0,2013-01-01 09:53:00
5:42 AM,32.0,28.4,87,30.06,6.0,North,11.5,-,N/A,,Overcast,360,2013-01-01 10:42:00
5:53 AM,30.9,28.0,89,30.09,8.0,North,8.1,-,N/A,,Overcast,360,2013-01-01 10:53:00
6:53 AM,30.9,28.0,89,30.10,6.0,Variable,3.5,-,N/A,,Overcast,0,2013-01-01 11:53:00
7:11 AM,30.2,28.4,93,30.08,4.0,North,4.6,-,N/A,,Overcast,360,2013-01-01 12:11:00
7:53 AM,30.0,28.0,92,30.10,4.0,North,3.5,-,N/A,,Overcast,10,2013-01-01 12:53:00
8:31 AM,30.2,26.6,86,30.07,2.5,North,6.9,-,N/A,,Overcast,360,2013-01-01 13:31:00
8:53 AM,28.9,27.0,92,30.08,2.5,North,9.2,-,N/A,,Overcast,360,2013-01-01 13:53:00
9:05 AM,28.4,26.6,93,30.08,2.5,North,8.1,-,N/A,,Overcast,360,2013-01-01 14:05:00
9:18 AM,28.4,24.8,86,30.09,4.0,North,9.2,-,N/A,,Overcast,10,2013-01-01 14:18:00
9:53 AM,28.0,24.1,85,30.13,3.0,North,10.4,-,N/A,,Overcast,360,2013-01-01 14:53:00
10:53 AM,28.0,23.0,81,30.14,3.0,North,9.2,-,N/A,,Haze,350,2013-01-01 15:53:00
11:53 AM,28.0,23.0,81,30.15,2.5,NNE,4.6,-,N/A,,Haze,20,2013-01-01 16:53:00
12:53 PM,28.0,24.1,85,30.12,3.0,NE,3.5,-,N/A,,Overcast,40,2013-01-01 17:53:00
1:19 PM,28.4,24.8,86,30.10,2.5,North,5.8,-,N/A,,Overcast,350,2013-01-01 18:19:00
1:29 PM,28.4,23.0,80,30.10,3.0,North,5.8,-,N/A,,Haze,350,2013-01-01 18:29:00
1:53 PM,28.0,24.1,85,30.13,3.0,North,5.8,-,N/A,,Overcast,350,2013-01-01 18:53:00
2:02 PM,28.4,24.8,86,30.10,3.0,North,3.5,-,N/A,,Overcast,350,2013-01-01 19:02:00
2:53 PM,28.9,23.0,78,30.12,4.0,North,3.5,-,N/A,,Haze,360,2013-01-01 19:53:00
3:53 PM,28.0,23.0,81,30.11,4.0,North,6.9,-,N/A,,Haze,350,2013-01-01 20:53:00
4:29 PM,28.4,21.2,74,30.10,4.0,NNW,4.6,-,N/A,,Haze,330,2013-01-01 21:29:00
4:53 PM,28.0,21.9,78,30.12,4.0,North,4.6,-,N/A,,Haze,350,2013-01-01 21:53:00
5:20 PM,26.6,21.2,80,30.10,5.0,North,4.6,-,N/A,,Haze,350,2013-01-01 22:20:00
5:53 PM,27.0,21.0,78,30.13,7.0,North,4.6,-,N/A,,Overcast,350,2013-01-01 22:53:00
6:53 PM,26.1,21.0,81,30.13,7.0,North,8.1,-,N/A,,Overcast,360,2013-01-01 23:53:00
7:53 PM,25.0,19.9,81,30.16,7.0,Calm,Calm,-,N/A,,Overcast,0,2013-01-02 00:53:00
8:53 PM,25.0,19.0,78,30.18,7.0,North,4.6,-,N/A,,Overcast,350,2013-01-02 01:53:00
9:53 PM,24.1,18.0,77,30.18,7.0,North,3.5,-,N/A,,Overcast,350,2013-01-02 02:53:00
10:53 PM,23.0,17.1,78,30.19,8.0,NNW,3.5,-,N/A,,Mostly Cloudy,340,2013-01-02 03:53:00
11:53 PM,21.0,16.0,81,30.20,9.0,NNW,3.5,-,N/A,,Clear,340,2013-01-02 04:53:00